Miscellaneous Local Product
Issued by NWS Hastings, NE

Home | Current Version | Previous Version | Graphics & Text | Print | Product List | Glossary On
Versions: 1 2 3 4 5 6 7 8 9 10 11 12 13 14 15 16 17 18 19 20 21 22 23 24 25 26 27 28 29 30 31 32 33 34 35 36 37 38 39 40 41 42 43 44 45 46 47 48 49 50
089
AXUS43 KGID 291302
MISGRI

GID CWA HOURLY WEATHER ROUNDUP
NATIONAL WEATHER SERVICE HASTINGS NE
800 AM CDT FRI APR 29 2016

NOTE: "FAIR" INDICATES FEW OR NO CLOUDS BELOW 12,000 FEET WITH NO
SIGNIFICANT WEATHER AND/OR OBSTRUCTIONS TO VISIBILITY.

...SOUTH CENTRAL NEBRASKA...

CITY           SKY/WX    TMP DP  RH WIND       PRES   REMARKS
GRAND ISLAND   CLOUDY    41  39  93 N8        30.06F
HASTINGS       CLOUDY    41  38  89 NE10      30.02F
KEARNEY        CLOUDY    41  37  87 N10       30.04F
ORD            CLOUDY    42  39  89 N9        30.06F
YORK           CLOUDY    43  39  87 N10       30.07F
AURORA         CLOUDY    42  41  97 NE7       30.06F
LEXINGTON      CLOUDY    41  37  88 NE8       30.05F
HOLDREGE       MOSUNNY   41  38  91 N14       30.02F
HEBRON         CLOUDY    44  39  82 NE9       30.06S

...NEBRASKA PANHANDLE...

CITY           SKY/WX    TMP DP  RH WIND       PRES   REMARKS
CHADRON        CLOUDY    37  35  92 NE5       30.09F WCI  33
ALLIANCE       CLOUDY    37  34  89 NE6       30.05F WCI  32
SCOTTSBLUFF    CLOUDY    36  33  89 CALM      30.06S
SIDNEY         FOG       36  34  92 NE9       30.02F VSB<1/4 WCI  29

...WESTERN AND NORTH CENTRAL NEBRASKA...

CITY           SKY/WX    TMP DP  RH WIND       PRES   REMARKS
VALENTINE      CLOUDY    39  36  89 NW6       30.12S WCI  35
AINSWORTH      CLOUDY    40  39  99 N6        30.10F FOG
ONEILL         CLOUDY    40  39  95 N5        30.12S
BROKEN BOW     CLOUDY    39  37  92 N8        30.05F WCI  33
IMPERIAL       CLOUDY    41  38  89 NE8       30.04S
NORTH PLATTE   CLOUDY    39  36  89 N8        30.05F WCI  33
MCCOOK         CLOUDY    43  40  89 NE9       30.03S

...EASTERN NEBRASKA...

CITY           SKY/WX    TMP DP  RH WIND       PRES   REMARKS
NORFOLK        CLOUDY    42  38  85 N10       30.08S
SO SIOUX CITY  CLOUDY    44  38  79 N12       30.11F
TEKAMAH        CLOUDY    43  41  93 N8        30.11R
COLUMBUS       CLOUDY    43  34  70 NE7       30.09F
ALBION         CLOUDY    42  38  87 N5        30.09R
OMAHA EPPLEY   CLOUDY    45  41  86 N12       30.08F
OFFUTT AFB     CLOUDY    45  42  88 N8        30.07F
MILLARD        CLOUDY    45  40  82 N3        30.08F
LINCOLN        CLOUDY    45  40  82 N13       30.07F
NEBRASKA CITY  CLOUDY    45  40  84 NE12      30.07R
BEATRICE       CLOUDY    45  39  81 NE9       30.07S
FALLS CITY     CLOUDY    47  40  76 NE9       30.07R

...NORTHERN KANSAS...

CITY           SKY/WX    TMP DP  RH WIND       PRES   REMARKS
GOODLAND       LGT RAIN  39  38  96 NE13      29.98F WCI  31
HILL CITY      CLOUDY    44  42  93 NE16      30.02R
NORTON         CLOUDY    41  36  81 NE13      30.00
PHILLIPSBURG   SUNNY     45  39  81 CALM      30.02F
SMITH CENTER   SUNNY     41  37  87 NE9       30.03S
BELOIT         CLOUDY    43  37  81 NE12      30.01F
HAYS           CLOUDY    45  36  70 E18       30.00R
RUSSELL        CLOUDY    44  42  93 NE14      29.97S
CONCORDIA      CLOUDY    45  40  82 NE8       30.04F
SALINA         RAIN      47  45  93 N9        30.04R FOG
TOPEKA         CLOUDY    48  41  76 NE13      30.05R



USA.gov is the U.S. government's official web portal to all federal, state and local government web resources and services.